Weather History for KIAG - May, 2014

Change the Weather History Date:

Tuesday, May 27, 2014

  Actual Average Record
Temperature  
Mean Temperature 72 °F -  
Max Temperature 80 °F 66 °F 82 °F (2012)
Min Temperature 63 °F 46 °F 37 °F (1997)
Cooling Degree Days 6    
Growing Degree Days 22 (Base 50)    
Moisture  
Dew Point 59 °F    
Average Humidity 72    
Maximum Humidity 93    
Minimum Humidity 54    
Precipitation  
Precipitation 0.18 in - - ()
Sea Level Pressure  
Sea Level Pressure 29.84 in    
Wind  
Wind Speed 10 mph (SW)    
Max Wind Speed 21 mph    
Max Gust Speed 26 mph    
Visibility 9 miles    
Events Rain , Thunderstorm    
Averages and records for this station are not official NWS values.
T = Trace of Precipitation, MM = Missing Value Source: NWS Daily Summary

Daily Weather History Graph

Daily Weather History Graph

Search for Another Location

Airport or City:

Trip Planner

Search our weather history database for the weather conditions in past years. The results will help you decide how hot, cold, wet, or windy it might be!

Date:

Astronomy

May. 27, 2014 Rise Set
Actual Time 5:41 AM EDT 8:44 PM EDT
Civil Twilight 5:07 AM EDT 9:18 PM EDT
Nautical Twilight 4:24 AM EDT 10:02 PM EDT
Astronomical Twilight 3:32 AM EDT 10:54 PM EDT
Moon 5:05 AM EDT (5/27) 7:42 PM EDT (5/27)
Length of Visible Light 16h 10m
Length of Day
15h 02m
Waning Crescent, 1% of the Moon is Illuminated
May 27
Waning Crescent
May 28
New
Jun 5
First Quarter
Jun 13
Full
Jun 19
Last Quarter

Hourly Weather History & Observations

Time (EDT) Temp. Dew Point Humidity Pressure Visibility Wind Dir Wind Speed Gust Speed Precip Events Conditions
12:53 AM 64.0 °F 51.1 °F 63% 29.90 in 10.0 mi SW 10.4 mph - N/A   Overcast
1:53 AM 64.4 °F 51.8 °F 64% 29.89 in 10.0 mi SW 8.1 mph - N/A   Overcast
2:53 AM 64.9 °F 51.1 °F 61% 29.87 in 10.0 mi SW 9.2 mph - N/A   Overcast
3:53 AM 64.9 °F 52.0 °F 63% 29.86 in 10.0 mi SW 10.4 mph - N/A   Overcast
4:53 AM 64.0 °F 53.1 °F 67% 29.84 in 10.0 mi SW 5.8 mph - N/A   Scattered Clouds
5:53 AM 64.0 °F 54.0 °F 70% 29.85 in 10.0 mi SW 5.8 mph - N/A   Mostly Cloudy
6:53 AM 64.0 °F 55.0 °F 73% 29.87 in 10.0 mi SW 5.8 mph - N/A   Partly Cloudy
7:00 AM 64.0 °F 55.0 °F 73% 29.88 in 10.0 mi SW 5.8 mph - N/A   Mostly Cloudy
7:53 AM 68.0 °F 57.0 °F 68% 29.87 in 10.0 mi SSW 3.5 mph - N/A   Mostly Cloudy
8:53 AM 71.1 °F 57.9 °F 63% 29.88 in 10.0 mi SW 8.1 mph - N/A   Mostly Cloudy
9:53 AM 69.1 °F 57.9 °F 68% 29.87 in 10.0 mi South 8.1 mph - N/A   Mostly Cloudy
10:53 AM 69.1 °F 57.9 °F 68% 29.86 in 10.0 mi SSE 6.9 mph - N/A   Mostly Cloudy
11:53 AM 73.9 °F 61.0 °F 64% 29.87 in 10.0 mi SSW 16.1 mph - N/A   Mostly Cloudy
12:53 PM 77.0 °F 63.0 °F 62% 29.86 in 10.0 mi SW 17.3 mph - N/A   Mostly Cloudy
1:53 PM 78.1 °F 64.0 °F 62% 29.84 in 10.0 mi SW 16.1 mph - N/A   Mostly Cloudy
2:53 PM 79.0 °F 62.1 °F 56% 29.82 in 10.0 mi WSW 20.7 mph 26.5 mph N/A   Scattered Clouds
3:53 PM 79.0 °F 61.0 °F 54% 29.80 in 10.0 mi SW 17.3 mph - N/A   Scattered Clouds
4:19 PM 78.1 °F 61.0 °F 56% 29.80 in 10.0 mi SW 16.1 mph - N/A Thunderstorm Thunderstorm
4:40 PM 75.9 °F 61.0 °F 60% 29.80 in 10.0 mi SW 16.1 mph 25.3 mph 0.00 in Rain , Thunderstorm Light Thunderstorms and Rain
4:53 PM 75.0 °F 61.0 °F 62% 29.80 in 10.0 mi SW 16.1 mph - 0.00 in Rain , Thunderstorm Light Thunderstorms and Rain
5:24 PM 73.0 °F 62.1 °F 68% 29.82 in 10.0 mi WSW 6.9 mph - 0.00 in Thunderstorm Thunderstorm
5:53 PM 72.0 °F 62.1 °F 71% 29.80 in 10.0 mi South 10.4 mph - 0.00 in Thunderstorm Thunderstorm
6:17 PM 71.1 °F 61.0 °F 70% 29.82 in 8.0 mi SW 6.9 mph - 0.00 in Rain , Thunderstorm Light Thunderstorms and Rain
6:30 PM 68.0 °F 64.0 °F 87% 29.83 in 1.5 mi Variable 6.9 mph - 0.14 in Rain , Thunderstorm Heavy Thunderstorms and Rain
6:44 PM 66.0 °F 64.0 °F 93% 29.81 in 5.0 mi South 9.2 mph - 0.18 in Rain , Thunderstorm Light Thunderstorms and Rain
6:53 PM 66.9 °F 64.0 °F 90% 29.81 in 8.0 mi South 10.4 mph - 0.18 in Rain , Thunderstorm Light Thunderstorms and Rain
7:28 PM 66.9 °F 63.0 °F 87% 29.81 in 10.0 mi SSW 10.4 mph - 0.00 in Rain , Thunderstorm Light Thunderstorms and Rain
7:53 PM 66.9 °F 63.0 °F 87% 29.81 in 10.0 mi SSW 11.5 mph - 0.00 in Rain , Thunderstorm Light Thunderstorms and Rain
8:04 PM 66.9 °F 63.0 °F 87% 29.82 in 10.0 mi SSW 10.4 mph - 0.00 in   Overcast
8:53 PM 64.9 °F 62.1 °F 90% 29.81 in 7.0 mi SSW 5.8 mph - 0.00 in   Overcast
9:53 PM 64.0 °F 62.1 °F 93% 29.82 in 7.0 mi SW 5.8 mph - N/A   Overcast
10:53 PM 64.4 °F 60.8 °F 88% 29.84 in 7.0 mi SSW 4.6 mph - N/A   Overcast
11:53 PM 63.0 °F 60.1 °F 90% 29.84 in 5.0 mi Calm Calm - N/A   Overcast